Weather History for Williston, ND

Change the Weather History Date:

Tuesday, September 2, 2014

  Actual Average Record
Temperature  
Mean Temperature 64 °F 63 °F  
Max Temperature 77 °F 78 °F 99 °F (1901)
Min Temperature 50 °F 48 °F 32 °F (1974)
Degree Days  
Heating Degree Days 1 4  
Month to date heating degree days 6 8  
Since 1 July heating degree days 63 79  
Cooling Degree Days 0 2  
Month to date cooling degree days 0 4  
Year to date cooling degree days 391 433  
Growing Degree Days 14 (Base 50)    
Moisture  
Dew Point 47 °F    
Average Humidity 59    
Maximum Humidity 89    
Minimum Humidity 28    
Precipitation  
Precipitation 0.02 in 0.04 in 0.90 in (1961)
Month to date precipitation 0.02 0.08  
Year to date precipitation 8.45 11.20  
Sea Level Pressure  
Sea Level Pressure 29.76 in    
Wind  
Wind Speed 8 mph (WSW)    
Max Wind Speed 20 mph    
Max Gust Speed 26 mph    
Visibility 10 miles    
Events Rain    
T = Trace of Precipitation, MM = Missing Value Source: NWS Daily Summary

Daily Weather History Graph

Daily Weather History Graph

Search for Another Location

Airport:

Trip Planner

Search our weather history database for the weather conditions in past years. The results will help you decide how hot, cold, wet, or windy it might be!

Date:

Astronomy

Sep. 02, 2014 Rise Set
Actual Time 7:13 AM CDT 8:33 PM CDT
Civil Twilight 6:41 AM CDT 9:05 PM CDT
Nautical Twilight 6:02 AM CDT 9:44 PM CDT
Astronomical Twilight 5:20 AM CDT 10:26 PM CDT
Moon 3:33 PM CDT (9/2) 12:06 AM CDT (9/2)
Length of Visible Light 14h 24m
Length of Day
13h 19m
First Quarter, 53% of the Moon is Illuminated
Sep 2
First Quarter
Sep 8
Full
Sep 15
Last Quarter
Sep 24
New
Oct 1
First Quarter

Hourly Weather History & Observations

Time (CDT) Temp. Dew Point Humidity Pressure Visibility Wind Dir Wind Speed Gust Speed Precip Events Conditions
12:52 AM 55.0 °F 50.0 °F 83% 29.81 in 10.0 mi South 3.5 mph - N/A   Clear
1:52 AM 57.0 °F 50.0 °F 77% 29.80 in 10.0 mi South 3.5 mph - N/A   Overcast
2:52 AM 55.9 °F 51.1 °F 84% 29.79 in 10.0 mi SSW 5.8 mph - 0.00 in Rain Light Rain
3:52 AM 60.8 °F 48.2 °F 63% 29.78 in 8.0 mi SSW 12.7 mph - N/A Rain Rain
4:52 AM 55.9 °F 48.9 °F 77% 29.76 in 10.0 mi SSW 6.9 mph - 0.01 in   Clear
5:52 AM 53.1 °F 48.9 °F 86% 29.77 in 10.0 mi SSW 6.9 mph - N/A   Partly Cloudy
6:52 AM 52.0 °F 48.9 °F 89% 29.75 in 10.0 mi SW 8.1 mph - N/A   Partly Cloudy
7:52 AM 53.1 °F 48.0 °F 83% 29.77 in 10.0 mi SW 12.7 mph - N/A   Scattered Clouds
8:52 AM 57.9 °F 48.9 °F 72% 29.77 in 10.0 mi SW 10.4 mph - N/A   Clear
9:52 AM 63.0 °F 46.9 °F 56% 29.77 in 10.0 mi West 15.0 mph - N/A   Clear
10:52 AM 66.9 °F 45.0 °F 45% 29.77 in 10.0 mi WNW 18.4 mph 24.2 mph N/A   Clear
11:52 AM 70.0 °F 45.0 °F 41% 29.76 in 10.0 mi West 16.1 mph 23.0 mph N/A   Clear
12:52 PM 72.0 °F 45.0 °F 38% 29.77 in 10.0 mi WNW 15.0 mph 23.0 mph N/A   Clear
1:52 PM 73.9 °F 46.0 °F 37% 29.76 in 10.0 mi WNW 15.0 mph - N/A   Clear
2:52 PM 75.0 °F 45.0 °F 34% 29.75 in 10.0 mi WNW 8.1 mph - N/A   Clear
3:52 PM 75.9 °F 42.1 °F 30% 29.74 in 10.0 mi West 6.9 mph 18.4 mph N/A   Clear
4:52 PM 75.9 °F 41.0 °F 29% 29.74 in 10.0 mi West 11.5 mph - N/A   Clear
5:52 PM 77.0 °F 41.0 °F 28% 29.73 in 10.0 mi NW 9.2 mph - N/A   Clear
6:52 PM 73.9 °F 43.0 °F 33% 29.73 in 10.0 mi WSW 3.5 mph - N/A   Clear
7:52 PM 71.1 °F 44.1 °F 38% 29.73 in 10.0 mi SSW 3.5 mph - N/A   Clear
8:52 PM 64.0 °F 48.9 °F 58% 29.73 in 10.0 mi Calm Calm - N/A   Clear
9:52 PM 55.4 °F 48.2 °F 77% 29.74 in 10.0 mi West 3.5 mph - N/A   Clear
10:52 PM 54.0 °F 46.9 °F 77% 29.73 in 10.0 mi Calm Calm - N/A   Clear
11:52 PM 51.1 °F 46.0 °F 83% 29.73 in 10.0 mi Calm Calm - N/A   Clear